Regional Weather Roundup
Issued by NWS

Home | Current Version | Previous Version | Graphics & Text | Print | Product List | Glossary On
Versions: 1 2 3 4 5 6 7 8 9 10 11 12 13 14 15 16 17 18 19 20 21 22 23 24 25 26 27 28
000
ASUS45 KSLC 221010
RWRUT

UTAH REGIONAL WEATHER ROUNDUP
NATIONAL WEATHER SERVICE SALT LAKE CITY UT
400 AM MDT FRI JUL 22 2016

UTZ001>011-023>025-221100-

NORTHERN UTAH

CITY           SKY/WX    TMP DP  RH WIND       PRES   REMARKS
BRIGHAM CITY     N/A     87  36  16 SE13      30.09S
HILL AFB       CLOUDY    81  45  28 SE8       30.14F
LOGAN          CLOUDY    81  42  25 SE12      30.11S
OGDEN          CLOUDY    83  44  25 S7        30.11S
PROVO AIRPORT  MOCLDY    73  48  40 S7        30.17S
SALT LAKE CITY MOCLDY    84  48  28 SE7       30.11F
VERNAL         CLEAR     60  51  72 CALM      30.25F
WENDOVER       PTCLDY    81  45  28 CALM      30.08R
HEBER CITY     MOCLDY    63  50  63 CALM      30.27F
WEST JORDAN    CLEAR     79  48  34 S7        30.15F

$$

UTZ012>022-026-027-221100-

SOUTHERN/CENTRAL UTAH

CITY           SKY/WX    TMP DP  RH WIND       PRES   REMARKS
BLANDING       MOCLDY    67  54  63 NE7       30.38S
BRYCE CANYON   MOCLDY    54  45  71 W8        30.45R
CEDAR CITY     CLEAR     71  44  37 S6        30.23F
DELTA          MOCLDY    75  50  41 W6        30.16S
MILFORD        CLEAR     68  46  45 S7        30.17S
MOAB/CYNLANDS  CLEAR     72  45  37 CALM      30.17S
PRICE          CLEAR     66  45  46 N6        30.29S
ST GEORGE      PTSUNNY   82  43  24 SE8       30.03S

$$

REGIONAL REPORTS     COLORADO/ARIZONA

CITY           SKY/WX    TMP DP  RH WIND       PRES   REMARKS
CRAIG, CO      CLEAR     50  45  83 CALM      30.35S
GRAND JUNCTION CLEAR     67  51  56 E5        30.23S
RIFLE          CLOUDY    60  51  72 E6        30.31S
MONTROSE       CLEAR     62  55  77 S5        30.33F
CORTEZ         CLEAR     62  55  77 NE7       30.32S
PAGE, AZ       CLEAR     81  52  36 SW6       30.15
GRAND CANYON   PTCLDY    59  49  69 NE5       30.36F
KINGMAN        CLEAR     82  41  23 MISG      30.06F
FLAGSTAFF      MOCLDY    55  52  89 CALM      30.41S

$$

REGIONAL REPORTS    NEVADA/IDAHO/WYOMING

CITY           SKY/WX    TMP DP  RH WIND       PRES   REMARKS
LAS VEGAS, NV  CLEAR     92  25   9 S8        29.90R
ELY            CLEAR     62  32  32 S7        30.28R
ELKO           CLEAR     62  22  21 CALM      30.19S
POCATELLO, ID  CLOUDY    83  39  21 S8        30.07R
BURLEY         PTCLDY    66  44  45 SW8       30.05R
EVANSTON, WY   CLOUDY    67  43  41 SW12      30.37F
ROCK SPRINGS   CLOUDY    59  42  53 CALM      30.33S
KEMMERER         N/A     59  34  38 N3        30.38R

$$




USA.gov is the U.S. government's official web portal to all federal, state and local government web resources and services.